Regional Weather Roundup
Issued by NWS

Home | Current Version | Previous Version | Text Only | Print | Product List | Glossary On
Versions: 1 2 3 4 5 6 7 8 9 10 11 12 13 14 15 16 17 18 19 20 21 22 23 24 25 26 27 28 29 30 31 32 33 34 35 36 37 38 39 40 41 42 43 44 45 46 47 48 49 50
000
ASUS45 KTFX 050010
RWRMT
MONTANA REGIONAL WEATHER ROUNDUP
NATIONAL WEATHER SERVICE GREAT FALLS MT
600 PM MDT TUE AUG 04 2015

NOTE: "FAIR" INDICATES FEW OR NO CLOUDS BELOW 12000 FEET WITH NO
SIGNIFICANT WEATHER AND/OR OBSTRUCTIONS TO VISIBILITY.

MTZ001>007-043-050100-
WEST OF THE DIVIDE

CITY           SKY/WX    TMP DP  RH WIND       PRES   REMARKS
KALISPELL      PTCLDY    83  44  25 SE16      29.86F
MISSOULA       MOSUNNY   85  40  20 NW3       29.89F
BUTTE          MOSUNNY   79  37  22 N6        30.04F
MULLAN PASS    SUNNY     68  34  28 VRB6      30.09F
DEER LODGE       N/A     81  39  22 CALM      30.01F
EUREKA           N/A     90  36  14 S12       29.82F
HAMILTON         N/A     81  45  28 W5        29.92R
LIBBY            N/A     88  37  16 SE7       29.85S
$$

MTZ008-052>055-050100-
SOUTHWEST MONTANA

CITY           SKY/WX    TMP DP  RH WIND       PRES   REMARKS
BOZEMAN        PTSUNNY   74  54  49 E7        30.01F
DILLON         MOSUNNY   80  41  24 W9        29.99S
W YELLOWSTONE  LGT RAIN  55  48  76 SE12      30.19F
$$

MTZ009-010-012-014-046-048-049-054-050100-
EAST SLOPES AND CENTRAL MONTANA

CITY           SKY/WX    TMP DP  RH WIND       PRES   REMARKS
CUT BANK       MOSUNNY   82  41  23 SW7G21    29.90F
GREAT FALLS    CLOUDY    76  48  37 SE8       29.92R
MALMSTROM AFB  CLOUDY    76  52  44 SE14      29.90S
HELENA         PTSUNNY   82  48  30 SE3       29.92F
$$

MTZ011-013-016-021-045-047-050-051-050100-
NORTH CENTRAL MONTANA

CITY           SKY/WX    TMP DP  RH WIND       PRES   REMARKS
HAVRE          CLOUDY    81  52  36 S8        29.85F
LEWISTOWN      PTSUNNY   74  51  44 W17G23    30.00R
CHINOOK          N/A     79  54  41 CALM      29.85F
FORT BENTON      N/A     81  52  36 E10       29.88S
$$

MTZ017>020-022>027-061-062-050100-
NORTHEAST MONTANA

CITY           SKY/WX    TMP DP  RH WIND       PRES   REMARKS
GLASGOW        PTSUNNY   76  62  62 NW10      29.84S
JORDAN           N/A     82  49  31 NW24G31   29.85F
SIDNEY         CLOUDY   N/A N/A N/A S8        29.84F
WOLF POINT     CLOUDY    81  56  42 W16G24    29.84R
PLENTYWOOD       N/A     86  54  32 SE13      29.87S
POPLAR           N/A     88  54  31 SE9       29.82S
$$

MTZ028>42-056>058-050100-
SOUTHCENTRAL AND SOUTHEAST MONTANA

CITY           SKY/WX    TMP DP  RH WIND       PRES   REMARKS
BAKER          PTSUNNY   85  54  34 SE15      29.90F
BILLINGS       MOSUNNY   77  49  37 W8        29.99S
LIVINGSTON     PTSUNNY   71  47  42 SE7       30.06R
MILES CITY     CLOUDY    77  59  53 E7        29.88S
FORSYTH          N/A     81  52  36 W8        29.89F
$$

REGIONAL REPORTS...DAKOTAS

CITY           SKY/WX    TMP DP  RH WIND       PRES   REMARKS
WILLISTON      PTSUNNY   88  54  31 SE12      29.87F
MINOT          MOSUNNY   81  49  32 E9        29.94F
DICKINSON      MOSUNNY   83  56  39 SE15G23   29.91F
CROSBY         FAIR      77  54  44 SE12      29.92S
BISMARCK       SUNNY     85  56  37 SE7       29.92F
GRAND FORKS    SUNNY     76  52  43 N7        29.99F
FARGO          SUNNY     79  50  36 N6        29.98F
BUFFALO SD       N/A     81  60  48 SE15      29.86S
RAPID CITY     MOSUNNY   81  59  47 S12       29.93F
$$

REGIONAL REPORTS...WYOMING/IDAHO/WASHINGTON

CITY           SKY/WX    TMP DP  RH WIND       PRES   REMARKS
GILLETTE       LGT RAIN  68  59  73 N12       30.02R
SHERIDAN       PTSUNNY   77  53  43 NW10      29.97F
BUFFALO WY     PTSUNNY   72  56  57 NE7       30.03F
CODY           MOSUNNY   72  54  53 N9        30.07F
YELLOWSTONE LA   N/A     60  40  47 W17G24    30.31R
IDAHO FALLS    PTSUNNY   77  50  38 NE8       30.03S
SALMON         MOSUNNY   84  45  24 CALM      29.88F
BOISE          SUNNY     91  47  21 N15       29.88F
SPOKANE        MOSUNNY   86  39  19 SW18G25   29.85F
$$

REGIONAL REPORTS...ALBERTA

CITY           SKY/WX    TMP DP  RH WIND       PRES   REMARKS
EDMONTON       MOSUNNY   68  55  64 N12       29.89S
CALGARY        TSTM      55  52  88 NW31G48   29.95R
LETHBRIDGE     MOSUNNY   81  52  36 E8        29.85F
MEDICINE HAT   CLOUDY    84  54  34 W5        29.82F
WATERTON GATE    N/A     77  41  27 SW15G23     N/A
CARDSTON         N/A     82  43  24 S7          N/A
MILK RIVER       N/A     82  48  30 N5          N/A
ONEFOUR          N/A     79  50  36 NW5         N/A
$$

REGIONAL REPORTS...SASKATCHEWAN

CITY           SKY/WX    TMP DP  RH WIND       PRES   REMARKS
SWIFT CURRENT  PTSUNNY   79  54  41 W15G24    29.82F
REGINA         PTSUNNY   81  54  39 E18       29.88F
SASKATOON      TSTM      70  61  73 E16       29.84F
CYPRESS HILLS    N/A     70  55  60 W3          N/A
VAL MARIE        N/A     81  50  34 NW13        N/A
ROCKGLEN         N/A     73  55  53 NW10        N/A
ASSINIBOIA       N/A     66  59  77 NE12        N/A
$$


USA.gov is the U.S. government's official web portal to all federal, state and local government web resources and services.